Temperature
19 20 20 20 20 21 21 21 21 21 21 20 20 20 20 20 20 20 20 20 20 20 20 20 19 19 19 19 19 19 19 19 19 19 19 19 19 19 19 18 18 18 19
20 20 20 20 20 20 21 21 21 20 20 20 20 20 20 20 20 20 20 20 20 20 20 19 19 19 19 19 19 19 19 19 19 19 19 19 19 19 19 19 18 19 19
20 20 20 20 20 20 20 20 20 20 20 20 20 20 20 20 20 20 20 20 20 19 19 19 19 19 19 19 19 19 19 19 19 19 19 19 19 19 19 19 19 18 18
21 20 20 20 20 20 20 20 20 20 20 20 20 20 20 20 20 20 20 20 20 19 19 19 19 19 19 19 19 19 19 19 19 19 19 19 19 19 19 19 19 18 18
21 20 20 20 20 20 20 20 20 20 20 20 20 20 20 20 20 20 20 20 20 20 19 19 19 19 19 19 19 19 19 18 19 19 19 19 19 19 19 19 19 18 18
21 21 21 21 21 20 20 20 20 20 20 20 20 20 20 20 20 20 20 20 20 19 19 19 19 19 19 19 19 19 18 18 18 18 18 18 19 19 19 19 18 18 18
21 21 21 21 21 21 20 20 20 20 20 20 20 20 20 20 20 20 19 19 19 19 19 19 19 19 19 19 19 18 18 18 18 18 18 18 18 19 19 19 18 18 18
21 21 20 20 20 20 20 20 20 20 20 20 20 20 19 19 19 19 19 19 19 19 19 19 19 19 19 19 19 18 18 18 18 18 18 18 18 19 19 19 18 18 18
20 20 20 20 20 20 20 20 20 20 20 20 20 19 19 19 19 19 19 19 19 19 19 19 19 19 19 19 19 18 18 18 18 18 18 18 18 18 19 18 18 18 18
19 19 19 19 19 19 19 19 19 19 19 19 19 19 19 19 19 19 19 19 19 19 19 19 19 19 19 19 19 18 18 18 18 18 18 18 18 18 18 18 18 18 18
19 19 19 19 19 19 19 19 19 19 19 19 19 19 19 19 19 19 19 19 19 19 19 19 19 19 19 19 18 18 18 18 18 18 18 18 18 18 18 18 18 18 18
18 18 18 19 19 18 18 19 18 18 18 19 19 19 19 19 19 19 18 18 18 18 18 19 19 19 19 19 18 18 18 18 18 18 18 18 18 18 18 18 18 18 18
18 17 18 18 18 18 18 18 18 18 18 18 18 18 18 18 18 18 18 18 18 18 18 19 19 19 19 19 18 18 18 18 18 18 18 18 18 18 18 18 18 18 18
17 17 17 17 17 18 18 18 18 18 18 18 18 18 18 18 18 18 18 18 18 18 18 18 19 19 19 19 18 18 18 18 18 18 18 18 18 18 18 18 18 18 18
17 17 17 17 17 17 17 17 17 18 18 18 18 18 18 18 18 18 18 18 18 18 18 18 18 18 18 18 18 18 18 18 18 18 18 18 18 18 18 18 18 18 18
16 16 16 17 17 17 17 17 17 17 17 18 18 18 18 18 18 18 18 18 18 18 18 18 18 18 18 18 18 18 18 18 18 18 18 18 18 18 18 18 18 18 18
16 16 16 16 16 16 16 16 17 17 17 17 17 18 18 18 18 18 18 18 18 18 18 18 18 18 18 18 18 18 18 18 18 18 18 18 18 18 18 18 18 18 18
15 15 15 15 15 15 15 16 16 16 16 16 17 17 17 17 18 18 18 18 18 18 18 18 18 18 18 18 18 18 18 18 18 18 18 18 18 18 18 18 18 18 18
15 15 15 15 15 15 15 15 15 16 16 16 16 16 17 17 17 17 18 18 18 18 18 18 18 18 18 18 18 18 18 18 18 18 18 18 18 18 18 18 18 18 18
14 14 14 14 14 14 14 14 15 15 15 16 16 16 16 16 17 17 17 17 17 18 18 17 18 18 18 18 18 18 18 18 18 18 18 18 18 18 18 18 18 18 18
14 14 14 14 14 14 14 14 14 15 15 15 15 15 16 16 16 16 17 17 17 17 17 17 17 18 18 18 18 18 18 18 18 18 18 18 18 18 18 18 18 18 18
13 13 13 13 13 13 13 13 14 14 14 15 15 15 15 16 16 16 16 17 17 17 17 17 17 17 17 18 18 18 18 18 18 18 18 18 18 18 18 18 18 18 18
13 13 13 13 13 13 13 13 13 14 14 14 14 15 15 15 15 16 16 16 16 16 17 17 17 17 17 17 17 17 18 18 18 18 18 18 18 18 18 18 18 18 18
12 12 12 13 13 13 13 13 13 13 13 14 14 14 14 15 15 15 15 16 16 16 16 16 17 17 17 17 17 17 17 18 18 18 18 18 18 18 18 18 17 18 18
12 12 12 12 12 12 13 13 13 13 13 13 14 14 14 15 15 15 15 15 15 16 16 16 16 16 16 17 17 17 17 17 17 17 17 17 17 17 17 17 17 17 17
12 12 12 12 12 12 12 12 12 13 13 13 13 14 14 14 15 15 15 15 15 15 16 16 16 16 16 16 16 16 16 16 17 17 17 17 17 17 17 17 17 17 17
Wind_Speed
5 9 13 13 14 14 13 13 12 11 11 10 10 10 10 10 10 10 10 9 9 9 9 9 9 9 8 8 8 8 9 9 9 9 9 10 10 10 9 10 10 9 11
9 12 14 13 14 13 13 12 12 11 10 10 9 9 9 9 9 9 9 8 8 8 8 8 8 7 7 6 6 7 7 7 7 7 8 9 10 10 10 9 9 9 10
11 13 13 13 14 13 13 12 12 11 10 9 9 8 8 8 8 8 8 8 7 7 7 7 7 7 6 5 5 6 6 7 6 5 7 7 8 9 9 9 9 9 9
14 13 13 14 13 13 12 12 11 10 10 9 8 8 8 8 8 8 8 7 7 7 7 7 6 6 5 4 4 5 6 7 7 7 6 5 7 8 9 9 9 9 9
13 13 13 14 13 13 12 11 11 10 9 9 8 8 8 8 8 7 7 7 7 7 7 6 6 6 5 4 3 3 5 6 7 8 8 8 7 8 8 8 8 8 8
12 14 15 15 14 13 12 11 10 10 9 9 8 8 8 8 7 7 7 7 7 7 6 6 5 5 4 3 1 2 4 5 6 6 8 8 7 8 8 8 7 8 8
12 14 15 16 15 13 12 11 11 10 9 9 8 8 8 8 8 7 7 7 7 6 6 6 5 5 4 3 1 1 3 4 4 6 7 7 7 8 8 8 7 7 7
10 11 13 16 15 14 13 12 11 11 10 9 9 9 8 8 8 8 8 8 8 7 7 6 6 5 5 4 3 2 2 3 4 5 7 6 7 8 8 7 7 7 7
7 5 5 9 12 14 14 13 12 12 11 11 10 10 9 9 9 9 9 9 9 8 8 7 7 6 6 5 5 4 2 2 3 6 7 7 7 8 7 7 7 7 7
6 4 2 1 3 7 11 13 13 13 13 13 13 12 12 11 10 10 10 10 10 10 9 9 8 8 7 7 6 6 4 1 3 5 7 8 9 8 7 7 7 7 7
7 5 4 3 2 3 7 11 14 14 14 14 14 14 14 12 11 11 12 12 12 12 11 11 10 9 9 8 8 8 5 2 2 6 9 10 10 9 8 8 7 7 7
6 5 4 3 3 3 4 6 10 11 12 13 13 13 13 13 13 12 13 15 15 15 13 13 12 11 10 8 9 9 5 4 4 7 9 11 11 10 9 8 8 7 7
4 5 4 3 3 2 2 3 4 6 8 10 12 13 12 12 11 12 11 13 15 15 13 12 12 10 9 8 8 8 7 6 7 9 11 13 12 11 10 9 8 8 7
5 5 4 3 3 4 3 3 2 2 3 5 9 11 10 7 7 8 8 10 11 11 10 10 8 10 10 11 10 8 8 7 8 11 13 15 13 12 11 10 10 9 8
6 6 5 4 3 3 3 3 2 3 4 6 8 9 9 6 6 6 6 8 10 11 10 8 8 7 7 9 10 9 8 9 10 12 13 16 15 13 12 11 11 10 9
7 7 6 5 3 3 2 3 3 4 5 7 7 8 9 8 6 5 6 6 7 10 11 9 8 7 6 6 7 8 9 10 12 13 13 15 16 14 13 12 12 11 10
7 8 7 6 4 4 4 4 4 5 6 5 7 9 9 10 9 6 6 6 7 11 11 8 8 7 6 6 7 7 6 9 12 13 14 14 14 14 14 13 13 12 11
7 8 8 8 7 6 5 5 4 5 5 5 6 8 9 9 9 6 5 5 6 8 6 6 6 6 6 5 5 5 4 6 10 12 13 13 13 13 14 15 14 13 13
8 8 9 8 7 6 6 5 5 5 4 5 6 6 7 7 7 5 4 5 6 4 5 6 5 4 5 5 5 4 4 5 7 10 9 12 13 13 14 15 16 15 14
8 9 9 9 8 7 5 4 4 4 4 4 4 5 7 6 6 5 4 5 5 5 5 4 4 4 3 4 4 2 2 4 5 7 9 10 12 14 15 14 15 15 16
9 9 9 9 8 6 4 4 4 4 4 4 4 5 6 6 6 4 5 5 5 5 6 6 4 4 3 3 3 0 1 1 3 5 6 6 8 12 14 14 14 13 13
9 9 9 9 9 8 5 4 4 4 4 4 4 4 5 5 6 5 5 5 6 5 6 7 5 4 3 3 4 3 1 2 1 2 4 6 7 7 8 13 12 13 13
9 9 9 9 9 8 8 5 5 3 3 3 4 4 4 5 6 5 5 5 6 6 7 8 7 7 5 3 3 4 4 5 2 1 2 3 5 5 6 8 11 13 14
8 9 9 8 9 9 8 6 5 4 3 4 4 4 5 5 5 5 5 5 6 6 7 7 8 6 6 5 3 3 3 4 4 2 1 1 4 6 6 6 7 11 13
8 8 8 9 8 8 8 7 5 4 4 4 4 5 5 5 5 5 4 5 5 5 7 7 6 7 6 6 5 3 2 1 2 3 3 2 1 3 4 5 4 7 12
7 8 8 9 9 9 8 7 6 6 6 6 6 5 5 4 4 5 4 4 5 5 6 7 7 7 7 6 5 5 4 4 4 3 3 3 3 2 2 3 3 4 8
Wind_Direction
160 166 151 147 145 144 142 140 138 136 132 127 123 119 115 110 107 105 102 100 97 94 91 88 87 84 81 74 69 68 67 68 70 70 71 72 72 72 82 88 90 93 97
155 159 150 145 144 145 145 145 145 144 140 136 132 129 126 122 118 114 111 108 105 102 100 98 97 93 87 78 70 65 62 60 66 73 75 75 75 75 81 90 94 100 101
146 151 149 147 144 144 145 146 147 147 145 143 141 139 136 131 128 125 122 119 116 113 111 109 109 105 97 84 70 59 52 45 48 79 95 84 78 78 83 92 97 101 104
145 150 151 150 147 146 147 147 148 149 149 148 147 146 144 140 137 135 132 129 127 123 120 116 115 114 107 94 72 53 43 40 52 86 104 91 84 84 86 92 97 101 104
147 151 153 153 151 150 150 150 151 152 152 153 154 152 150 148 147 145 141 139 137 134 131 127 123 122 119 108 80 47 36 40 64 97 106 98 90 93 92 91 94 102 106
151 154 158 159 159 158 157 157 157 159 160 162 163 164 162 160 160 158 156 153 148 144 144 142 139 137 136 133 101 39 25 37 67 112 118 111 103 99 95 94 96 101 108
155 161 166 166 166 167 167 168 169 170 172 174 176 176 174 174 174 173 172 168 164 160 156 156 158 157 161 170 188 351 13 26 85 126 131 124 117 107 101 98 100 103 109
154 161 171 173 173 176 177 179 181 183 185 188 190 189 187 188 186 184 183 180 178 174 173 174 176 180 186 198 222 263 354 31 91 133 146 142 129 115 108 104 102 102 108
111 127 164 185 186 186 186 188 191 194 196 199 199 199 199 200 200 197 194 191 188 186 186 189 192 197 203 216 234 255 290 28 110 153 159 157 143 128 120 112 106 103 109
67 64 64 163 202 210 205 201 201 202 205 207 207 206 207 208 208 208 205 201 200 198 199 201 204 208 216 227 239 251 268 24 130 171 166 167 155 141 132 123 115 112 112
48 40 31 20 1 264 238 225 216 213 214 214 215 214 211 211 214 216 214 210 210 208 208 209 212 218 224 235 245 252 258 189 167 178 174 176 165 154 145 136 128 121 118
29 21 24 19 352 305 257 246 230 224 225 222 220 219 215 212 216 221 223 221 217 215 214 216 219 224 231 240 253 259 247 204 188 190 190 183 171 163 156 150 144 137 133
27 20 9 351 340 327 307 286 245 232 232 233 228 225 223 220 222 227 226 228 225 220 217 220 223 226 230 236 245 250 241 217 202 197 196 187 178 171 166 163 158 152 150
16 9 356 345 342 336 339 323 282 244 240 242 242 235 227 222 224 224 221 219 215 212 209 214 217 225 233 239 242 243 237 221 205 195 194 190 182 177 175 172 168 164 160
9 356 343 338 344 334 330 313 296 262 254 255 254 242 226 221 225 221 219 216 210 208 208 211 216 223 230 239 242 238 225 215 200 193 193 192 186 181 180 179 175 172 170
356 347 339 332 322 319 307 289 278 272 269 261 255 243 229 226 227 216 213 213 212 210 212 212 213 219 226 227 233 230 221 204 193 191 190 191 189 186 184 184 182 180 179
352 346 341 334 339 322 309 293 291 278 269 262 259 250 236 227 222 214 210 209 212 211 210 213 219 221 227 226 230 225 211 192 183 187 189 187 189 190 188 190 188 187 187
358 349 339 343 338 325 315 302 298 292 284 270 268 257 246 239 229 219 214 212 208 203 202 206 209 208 223 222 216 210 194 180 180 185 188 188 187 190 194 195 192 191 191
358 347 340 336 329 319 313 306 301 297 291 282 277 269 260 251 239 224 219 215 202 191 196 209 204 198 209 213 212 202 183 178 181 185 186 190 191 193 193 197 196 195 196
352 347 343 337 333 323 314 312 309 303 294 288 278 271 269 261 253 236 227 221 205 195 195 201 200 199 197 194 197 192 184 191 185 185 189 191 195 197 196 196 197 200 202
349 345 341 340 335 332 323 314 306 300 295 293 285 277 274 264 257 242 239 226 213 205 203 197 193 198 198 169 135 117 338 251 191 188 193 190 195 197 196 197 198 200 205
342 340 342 341 334 332 321 300 273 271 272 273 284 293 284 275 266 253 237 226 214 210 207 200 189 185 195 170 149 136 163 328 299 214 188 187 191 188 193 200 200 201 203
342 340 340 332 332 330 330 323 317 309 305 311 310 304 294 288 273 259 245 232 219 208 210 205 196 185 191 196 177 157 160 202 222 273 205 181 174 174 187 194 201 206 206
334 336 335 333 333 332 336 339 335 325 310 293 294 292 296 294 281 263 250 236 227 216 213 212 203 193 181 193 201 205 173 157 158 188 273 197 167 169 180 190 198 205 204
334 338 339 340 338 337 340 341 336 330 312 309 315 317 313 303 288 276 257 241 233 224 215 209 200 193 190 192 187 177 175 161 145 150 182 196 177 180 183 184 182 194 199
338 340 343 345 344 346 349 349 349 345 338 341 339 333 325 314 304 294 274 251 238 229 222 213 204 199 200 197 193 183 174 172 180 165 170 183 191 202 186 183 182 186 192
Height
1550 1552 1553 1554 1555 1556 1557 1557 1558 1559 1560 1560 1561 1561 1562 1562 1562 1562 1563 1563 1563 1563 1563 1563 1563 1563 1563 1563 1563 1562 1562 1561 1560 1560 1559 1558 1558 1557 1557 1556 1556 1556 1556
1550 1552 1553 1554 1555 1556 1557 1558 1558 1559 1560 1560 1561 1561 1561 1562 1562 1562 1562 1562 1563 1563 1563 1563 1563 1563 1563 1563 1563 1563 1562 1562 1561 1561 1560 1559 1559 1558 1558 1557 1557 1557 1557
1551 1552 1553 1555 1556 1556 1557 1558 1558 1559 1559 1560 1560 1561 1561 1561 1561 1562 1562 1562 1562 1562 1563 1563 1563 1563 1563 1564 1564 1563 1563 1563 1562 1562 1561 1560 1560 1559 1558 1558 1558 1558 1558
1552 1553 1554 1555 1556 1556 1557 1558 1558 1559 1559 1560 1560 1560 1561 1561 1561 1561 1561 1562 1562 1562 1562 1563 1563 1563 1563 1564 1564 1564 1564 1563 1563 1562 1562 1561 1561 1560 1559 1559 1559 1559 1559
1553 1553 1554 1555 1556 1557 1557 1558 1558 1559 1559 1559 1560 1560 1560 1560 1560 1561 1561 1561 1561 1562 1562 1562 1562 1563 1563 1564 1564 1564 1564 1564 1564 1563 1563 1562 1562 1561 1560 1560 1560 1559 1560
1553 1554 1555 1555 1556 1556 1557 1557 1558 1558 1559 1559 1559 1559 1560 1560 1560 1560 1560 1561 1561 1561 1561 1562 1562 1562 1563 1563 1564 1564 1564 1564 1564 1564 1563 1563 1563 1562 1561 1561 1560 1560 1560
1553 1554 1555 1555 1556 1556 1557 1557 1557 1558 1558 1558 1559 1559 1559 1559 1559 1559 1560 1560 1560 1560 1561 1561 1561 1562 1562 1562 1563 1564 1564 1564 1564 1564 1564 1564 1563 1563 1562 1561 1561 1561 1561
1554 1554 1555 1556 1556 1556 1556 1557 1557 1557 1557 1558 1558 1558 1558 1558 1559 1559 1559 1559 1559 1560 1560 1560 1560 1561 1561 1562 1562 1563 1564 1564 1564 1564 1564 1564 1564 1563 1563 1562 1562 1562 1562
1553 1554 1554 1555 1556 1556 1556 1556 1556 1556 1556 1557 1557 1557 1557 1557 1558 1558 1558 1558 1559 1559 1559 1559 1559 1560 1560 1561 1561 1562 1563 1563 1564 1564 1564 1564 1564 1564 1563 1563 1563 1563 1563
1554 1553 1554 1554 1554 1554 1555 1555 1554 1555 1555 1555 1555 1556 1556 1556 1556 1557 1557 1557 1557 1558 1558 1558 1558 1559 1559 1560 1560 1561 1562 1563 1563 1564 1564 1564 1564 1564 1564 1564 1564 1564 1564
1553 1553 1552 1553 1552 1553 1553 1553 1553 1553 1553 1553 1554 1554 1554 1554 1555 1555 1555 1555 1556 1556 1556 1557 1557 1557 1558 1558 1559 1560 1561 1562 1563 1563 1564 1564 1564 1564 1564 1564 1564 1564 1564
1553 1552 1552 1551 1551 1551 1550 1550 1551 1550 1551 1551 1551 1551 1552 1552 1552 1553 1553 1554 1554 1554 1554 1555 1555 1556 1556 1557 1558 1559 1560 1561 1562 1563 1563 1564 1564 1563 1563 1564 1564 1565 1565
1554 1552 1551 1550 1549 1548 1548 1547 1547 1547 1547 1548 1548 1549 1549 1549 1549 1550 1551 1551 1552 1552 1552 1553 1553 1554 1555 1556 1557 1558 1559 1560 1561 1562 1563 1563 1563 1563 1563 1563 1564 1565 1565
1553 1552 1550 1549 1547 1546 1545 1544 1544 1544 1543 1544 1544 1545 1545 1546 1546 1547 1547 1548 1549 1549 1550 1551 1551 1552 1553 1555 1556 1557 1558 1559 1560 1561 1562 1562 1562 1562 1562 1562 1563 1564 1565
1553 1551 1549 1547 1545 1544 1543 1542 1541 1540 1540 1540 1540 1541 1541 1542 1542 1543 1544 1545 1546 1546 1548 1549 1549 1550 1552 1553 1554 1555 1556 1558 1559 1560 1561 1561 1561 1561 1561 1562 1562 1563 1564
1551 1549 1547 1545 1543 1541 1540 1539 1537 1537 1536 1536 1536 1537 1537 1538 1538 1539 1539 1541 1542 1543 1545 1546 1548 1549 1550 1551 1552 1553 1554 1555 1557 1558 1560 1560 1560 1560 1560 1561 1562 1562 1564
1549 1547 1545 1543 1541 1539 1537 1535 1534 1533 1532 1532 1532 1532 1533 1533 1534 1535 1535 1536 1538 1539 1541 1543 1544 1546 1547 1548 1549 1551 1552 1553 1555 1556 1558 1559 1559 1559 1559 1560 1560 1561 1563
1547 1545 1542 1540 1537 1535 1533 1531 1530 1528 1527 1527 1527 1527 1528 1528 1529 1530 1531 1532 1533 1535 1537 1538 1540 1542 1543 1545 1547 1548 1549 1551 1552 1554 1556 1557 1558 1558 1558 1559 1559 1560 1562
1545 1541 1539 1536 1533 1531 1529 1527 1525 1524 1523 1522 1522 1522 1522 1523 1524 1525 1526 1527 1529 1530 1532 1534 1536 1538 1539 1542 1544 1545 1547 1548 1550 1552 1554 1555 1556 1557 1557 1558 1558 1559 1560
1542 1539 1536 1533 1530 1527 1525 1523 1521 1520 1519 1518 1517 1517 1517 1518 1519 1520 1521 1522 1524 1525 1527 1529 1531 1534 1536 1538 1541 1542 1544 1546 1548 1549 1551 1553 1554 1555 1556 1556 1557 1558 1559
1540 1536 1533 1530 1527 1524 1521 1519 1517 1516 1515 1514 1513 1513 1513 1513 1513 1514 1516 1517 1519 1520 1522 1525 1526 1529 1531 1534 1537 1539 1541 1543 1544 1546 1548 1550 1551 1553 1554 1555 1556 1557 1557
1538 1534 1531 1528 1524 1521 1518 1516 1514 1512 1511 1510 1509 1509 1508 1508 1509 1509 1510 1512 1513 1515 1517 1519 1522 1524 1526 1529 1532 1535 1537 1540 1540 1542 1544 1546 1548 1549 1551 1553 1554 1555 1556
1538 1533 1530 1526 1523 1519 1516 1513 1511 1508 1507 1506 1505 1505 1504 1504 1504 1505 1505 1506 1508 1510 1511 1513 1516 1519 1521 1524 1527 1530 1532 1533 1536 1538 1540 1542 1544 1546 1548 1549 1551 1553 1554
1537 1533 1529 1525 1521 1518 1514 1511 1508 1506 1504 1503 1502 1501 1501 1500 1500 1500 1501 1501 1503 1504 1506 1508 1510 1513 1516 1519 1522 1525 1528 1529 1532 1533 1536 1538 1540 1542 1544 1546 1548 1549 1551
1538 1533 1529 1525 1521 1517 1513 1510 1507 1504 1502 1501 1500 1498 1497 1497 1496 1496 1497 1497 1498 1499 1501 1503 1505 1507 1510 1513 1516 1519 1522 1525 1527 1529 1530 1533 1536 1538 1540 1542 1544 1546 1548
1538 1533 1529 1525 1521 1517 1513 1509 1506 1503 1501 1499 1498 1496 1495 1494 1493 1493 1493 1493 1494 1495 1496 1498 1500 1503 1505 1508 1511 1513 1516 1519 1521 1524 1526 1528 1531 1534 1536 1538 1540 1542 1544